Edwards AFB North Base, CA

1:03 AM PDT on June 29, 2017 (GMT -0700)
Edwards AFB North Base

Weather History for K9L2 - January, 2012

Change the Weather History Date:

Thursday, January 12, 2012

  Actual Average (KEDW) Record (KEDW)
Temperature  
Mean Temperature 41 °F -  
Max Temperature 61 °F 58 °F 69 °F (1999)
Min Temperature 21 °F 30 °F 15 °F (2013)
Degree Days  
Heating Degree Days 24    
Moisture  
Dew Point 4 °F    
Average Humidity 27    
Maximum Humidity 55    
Minimum Humidity 9    
Precipitation  
Precipitation 0.00 in - - ()
Sea Level Pressure  
Sea Level Pressure 30.18 in    
Wind  
Wind Speed 2 mph (NNE)    
Max Wind Speed 9 mph    
Max Gust Speed -    
Visibility 10 miles    
Events      
Averages and records for this station are not official NWS values.
T = Trace of Precipitation, MM = Missing Value Source: NWS Daily Summary

Daily Weather History Graph

Daily Weather History Graph

Search for Another Location

Airport or City:

Trip Planner

Search our weather history database for the weather conditions in past years. The results will help you decide how hot, cold, wet, or windy it might be!

Date:

Astronomy

Jan. 12, 2012 Rise Set
Actual Time 6:59 AM PST 4:59 PM PST
Civil Twilight 6:31 AM PST 5:27 PM PST
Nautical Twilight 6:00 AM PST 5:58 PM PST
Astronomical Twilight 5:30 AM PST 6:29 PM PST
Moon 8:59 PM PST (1/12) 8:55 AM PST (1/12)
Length of Visible Light 10h 55m
Length of Day
10h 00m
Waning Gibbous, 86% of the Moon is Illuminated
Jan 12
Waning Gibbous
Jan 16
Last Quarter
Jan 22
New
Jan 30
First Quarter
Feb 7
Full

Hourly Weather History & Observations

Time (PST) Temp. Windchill Dew Point Humidity Pressure Visibility Wind Dir Wind Speed Gust Speed Precip Events Conditions
12:55 AM 28.9 °F - 10.9 °F 47% 30.14 in 10.0 mi Calm Calm - N/A   Clear
2:55 AM 28.0 °F - 10.0 °F 47% 30.13 in 10.0 mi Calm Calm - N/A   Clear
4:55 AM 24.1 °F - 8.1 °F 51% 30.15 in 10.0 mi Calm Calm - N/A   Unknown
5:55 AM 21.0 °F - 7.0 °F 55% 30.18 in 10.0 mi Calm Calm - N/A   Unknown
6:55 AM 21.0 °F - 7.0 °F 55% 30.20 in 10.0 mi Calm Calm - N/A   Unknown
8:55 AM 30.9 °F - 8.1 °F 38% 30.23 in 10.0 mi Calm Calm - N/A   Unknown
9:55 AM 39.9 °F - 10.9 °F 31% 30.22 in 10.0 mi Calm Calm - N/A   Clear
10:55 AM 50.0 °F - 10.9 °F 21% 30.20 in 10.0 mi Calm Calm - N/A   Clear
11:55 AM 57.9 °F - 8.1 °F 14% 30.16 in 10.0 mi NE 3.5 mph - N/A   Clear
12:55 PM 60.1 °F - 3.9 °F 11% 30.14 in 10.0 mi ENE 4.6 mph - N/A   Clear
1:55 PM 61.0 °F - 3.9 °F 10% 30.13 in 10.0 mi East 4.6 mph - N/A   Clear
2:55 PM 61.0 °F - 1.9 °F 9% 30.12 in 10.0 mi Variable 3.5 mph - N/A   Clear
3:55 PM 61.0 °F - 1.9 °F 9% 30.14 in 10.0 mi East 6.9 mph - N/A   Clear
4:55 PM 55.0 °F - 1.0 °F 11% 30.15 in 10.0 mi ENE 4.6 mph - N/A   Clear
5:55 PM 48.9 °F - 1.0 °F 14% 30.18 in 10.0 mi ENE 4.6 mph - N/A   Clear
6:55 PM 42.1 °F 40.2 °F 1.0 °F 18% 30.20 in 10.0 mi North 3.5 mph - N/A   Clear
7:55 PM 35.1 °F 30.1 °F -0.9 °F 22% 30.22 in 10.0 mi NNW 5.8 mph - N/A   Clear
8:55 PM 33.1 °F 28.7 °F -0.9 °F 23% 30.23 in 10.0 mi North 4.6 mph - N/A   Unknown
9:55 PM 30.9 °F - -2.0 °F 24% 30.24 in 10.0 mi Calm Calm - N/A   Unknown
10:55 PM 30.9 °F 22.8 °F -0.9 °F 26% 30.24 in 10.0 mi NW 9.2 mph - N/A   Unknown
11:55 PM 26.1 °F 20.5 °F -2.0 °F 30% 30.24 in 10.0 mi NNW 4.6 mph - N/A   Unknown